Location: Kikino
(54.4440°N, 112.0940°W)
Time: 14:11:04
(UTC+00:00)

AO-27 - Pass Details

Date: 04 December 2023
Orbit: 784 x 797 km, 98.8° (Epoch: 28 February)

Event Time Altitude Azimuth Distance (km) Brightness Sun altitude
Exits shadow 01:37:30 14° 17° (NNE) 2,125 9.6 -20.6°
Drops below altitude 10° 01:38:32 10° 7° (N) 2,380 10.0 -20.8°
Sets 01:41:30 0° 350° (N) 3,316 10.9 -21.2°
